EW5291 Weather Reports


Display with metric or nautical units.
time (UTC)temp
F
wind
direction
speed
MPH
gust
MPH
rain 1hr
in
rain 24hr
in
rain mn
in
humidity
%
barometer
mb
20260506021004 65 191 1.0 13.0 0.00 0.00 0.00 52 1008.8
20260506020503 65 191 1.0 8.0 0.00 0.00 0.00 51 1008.7
20260506020111 65 190 0.0 7.0 0.00 0.00 0.00 52 1009.0
20260506020004 65 191 0.0 7.0 0.00 0.00 0.00 52 1008.8
20260506015503 65 191 0.0 5.0 0.00 0.00 0.00 52 1008.8
20260506015004 66 191 0.0 5.0 0.00 0.00 0.00 51 1008.7
20260506014614 65 190 0.0 6.0 0.00 0.00 0.00 51 1008.9
20260506014503 66 191 0.0 5.0 0.00 0.00 0.00 50 1008.7
20260506013503 66 191 0.0 6.0 0.00 0.00 0.00 50 1008.5
20260506013105 66 190 0.0 6.0 0.00 0.00 0.00 50 1008.7
20260506013003 66 191 1.0 11.0 0.00 0.00 0.00 50 1008.4
20260506012503 67 191 1.0 11.0 0.00 0.00 0.00 50 1008.4
20260506012003 67 191 1.0 10.0 0.00 0.00 0.00 50 1008.4
20260506011630 66 190 0.0 10.0 0.00 0.00 0.00 49 1008.4
20260506011504 67 191 0.0 10.0 0.00 0.00 0.00 49 1008.2
20260506011004 67 190 0.0 3.0 0.00 0.00 0.00 49 1008.2
20260506010504 68 191 1.0 6.0 0.00 0.00 0.00 49 1008.2
20260506010103 67 190 1.0 6.0 0.00 0.00 0.00 48 1008.3
20260506010004 68 191 1.0 6.0 0.00 0.00 0.00 48 1008.1
20260506005504 68 191 0.0 6.0 0.00 0.00 0.00 49 1008.1
20260506004608 68 190 0.0 3.0 0.00 0.00 0.00 49 1008.3
20260506004504 68 191 0.0 5.0 0.00 0.00 0.00 48 1008.1
20260506004003 68 191 0.0 8.0 0.00 0.00 0.00 48 1008.1
20260506003503 68 191 1.0 8.0 0.00 0.00 0.00 48 1007.9
20260506003102 68 190 0.0 10.0 0.00 0.00 0.00 47 1008.1
20260506003003 69 191 0.0 6.0 0.00 0.00 0.00 47 1007.9
20260506002504 69 191 0.0 5.0 0.00 0.00 0.00 46 1007.8
20260506002004 69 191 1.0 10.0 0.00 0.00 0.00 46 1007.7
20260506001605 69 190 1.0 10.0 0.00 0.00 0.00 45 1007.9
20260506001503 69 191 1.0 10.0 0.00 0.00 0.00 45 1007.5
20260506001003 70 191 1.0 10.0 0.00 0.00 0.00 45 1007.5
20260506000503 70 191 1.0 10.0 0.00 0.00 0.00 45 1007.5
20260506000122 69 190 0.0 11.0 0.00 0.00 0.00 45 1007.6
20260506000004 70 191 1.0 10.0 0.00 0.00 0.00 45 1007.3
20260505235504 70 191 0.0 4.0 0.00 0.00 0.00 44 1007.2
20260505235004 70 191 1.0 10.0 0.00 0.00 0.00 43 1007.2
20260505234611 70 190 0.0 10.0 0.00 0.00 0.00 43 1007.4
20260505234503 71 191 1.0 10.0 0.00 0.00 0.00 43 1007.1
20260505234003 71 191 1.0 7.0 0.00 0.00 0.00 42 1007.0
20260505233103 71 190 0.0 2.0 0.00 0.00 0.00 41 1007.0
20260505233004 72 190 0.0 2.0 0.00 0.00 0.00 41 1006.7
20260505232504 72 191 1.0 7.0 0.00 0.00 0.00 41 1006.6
20260505232003 72 191 1.0 7.0 0.00 0.00 0.00 40 1006.6
20260505231614 72 190 0.0 7.0 0.00 0.00 0.00 40 1006.8
20260505231503 72 191 0.0 7.0 0.00 0.00 0.00 40 1006.5
20260505231004 73 191 1.0 10.0 0.00 0.00 0.00 40 1006.4
20260505230504 73 191 1.0 10.0 0.00 0.00 0.00 40 1006.4
20260505230110 73 190 0.0 6.0 0.00 0.00 0.00 39 1006.5
20260505225504 73 191 0.0 3.0 0.00 0.00 0.00 40 1006.2
20260505225003 74 191 0.0 7.0 0.00 0.00 0.00 39 1006.2
20260505224602 73 190 0.0 11.0 0.00 0.00 0.00 38 1006.4
20260505224504 74 191 1.0 7.0 0.00 0.00 0.00 38 1006.2
20260505224004 74 191 1.0 14.0 0.00 0.00 0.00 37 1006.1
20260505223504 74 191 1.0 14.0 0.00 0.00 0.00 38 1006.0
20260505223105 74 190 1.0 14.0 0.00 0.00 0.00 38 1006.2
20260505223004 75 190 1.0 9.0 0.00 0.00 0.00 37 1006.0
20260505222503 75 191 1.0 9.0 0.00 0.00 0.00 36 1005.9
20260505222003 76 191 1.0 9.0 0.00 0.00 0.00 37 1005.8
20260505221604 75 190 1.0 10.0 0.00 0.00 0.00 36 1005.9
20260505221503 76 191 1.0 10.0 0.00 0.00 0.00 36 1005.7
20260505221003 76 191 1.0 10.0 0.00 0.00 0.00 36 1005.6
20260505220503 76 191 1.0 8.0 0.00 0.00 0.00 35 1005.6
20260505220103 76 190 0.0 7.0 0.00 0.00 0.00 35 1005.7
20260505220003 76 191 1.0 7.0 0.00 0.00 0.00 35 1005.6
20260505215504 76 191 1.0 7.0 0.00 0.00 0.00 35 1005.4
20260505214603 76 190 1.0 15.0 0.00 0.00 0.00 33 1005.4
20260505214504 77 191 2.0 11.0 0.00 0.00 0.00 34 1005.3
20260505213503 77 191 1.0 16.0 0.00 0.00 0.00 34 1005.3
20260505213102 77 190 2.0 16.0 0.00 0.00 0.00 33 1005.6
20260505213003 77 191 1.0 16.0 0.00 0.00 0.00 33 1005.3
20260505212503 78 191 1.0 9.0 0.00 0.00 0.00 34 1005.4
20260505212003 78 190 1.0 14.0 0.00 0.00 0.00 32 1005.5
20260505211604 77 190 2.0 14.0 0.00 0.00 0.00 33 1005.7
20260505211503 78 191 1.0 14.0 0.00 0.00 0.00 31 1005.5
20260505210103 77 190 3.0 14.0 0.00 0.00 0.00 32 1005.6
20260505210004 78 191 2.0 14.0 0.00 0.00 0.00 31 1005.3
20260505205504 78 191 2.0 12.0 0.00 0.00 0.00 32 1005.2
20260505205004 79 191 2.0 14.0 0.00 0.00 0.00 32 1005.1
20260505204604 79 190 1.0 15.0 0.00 0.00 0.00 31 1005.4
20260505204004 79 191 3.0 14.0 0.00 0.00 0.00 30 1005.1
20260505203503 80 191 2.0 14.0 0.00 0.00 0.00 29 1005.0
20260505203117 79 190 0.0 5.0 0.00 0.00 0.00 29 1005.3
20260505203003 80 191 1.0 6.0 0.00 0.00 0.00 28 1005.0
20260505202504 80 191 2.0 15.0 0.00 0.00 0.00 28 1005.2
20260505201602 80 190 4.0 15.0 0.00 0.00 0.00 26 1005.3
20260505201503 81 191 3.0 13.0 0.00 0.00 0.00 26 1005.4
20260505201003 81 191 2.0 13.0 0.00 0.00 0.00 26 1005.3
20260505200003 82 190 2.0 11.0 0.00 0.00 0.00 25 1005.2
20260505195503 82 191 2.0 11.0 0.00 0.00 0.00 26 1005.2
20260505195004 82 191 2.0 10.0 0.00 0.00 0.00 25 1005.0
20260505194619 82 190 1.0 13.0 0.00 0.00 0.00 25 1005.3
20260505194003 83 191 2.0 10.0 0.00 0.00 0.00 25 1005.3
20260505193503 83 191 2.0 9.0 0.00 0.00 0.00 25 1005.3
20260505193107 82 190 0.0 12.0 0.00 0.00 0.00 27 1005.6
20260505193004 83 190 1.0 12.0 0.00 0.00 0.00 27 1005.3
20260505192503 83 191 2.0 12.0 0.00 0.00 0.00 26 1005.2
20260505192003 82 191 2.0 13.0 0.00 0.00 0.00 28 1005.3
20260505191609 82 190 2.0 13.0 0.00 0.00 0.00 26 1005.6
20260505191504 83 191 2.0 13.0 0.00 0.00 0.00 25 1005.5
20260505190503 82 191 3.0 13.0 0.00 0.00 0.00 26 1005.6
20260505190106 82 190 2.0 23.0 0.00 0.00 0.00 26 1005.9
20260505185503 83 191 2.0 10.0 0.00 0.00 0.00 25 1005.6
20260505185003 84 191 2.0 12.0 0.00 0.00 0.00 26 1005.8
20260505184602 83 190 0.0 12.0 0.00 0.00 0.00 27 1005.9
20260505184004 83 191 1.0 5.0 0.00 0.00 0.00 26 1005.8
20260505183503 83 191 1.0 13.0 0.00 0.00 0.00 26 1006.0
20260505183104 82 190 0.0 13.0 0.00 0.00 0.00 31 1006.2
20260505183003 82 191 2.0 13.0 0.00 0.00 0.00 28 1005.9
20260505182504 83 190 1.0 8.0 0.00 0.00 0.00 27 1005.9
20260505182003 83 191 1.0 9.0 0.00 0.00 0.00 28 1006.0
20260505181602 82 190 2.0 11.0 0.00 0.00 0.00 28 1006.3
20260505181503 83 191 1.0 9.0 0.00 0.00 0.00 28 1006.1
20260505181003 82 191 1.0 5.0 0.00 0.00 0.00 28 1006.3
20260505180503 82 191 1.0 5.0 0.00 0.00 0.00 30 1006.2
20260505180108 81 190 0.0 7.0 0.00 0.00 0.00 30 1006.6
20260505180003 82 191 1.0 7.0 0.00 0.00 0.00 29 1006.4
20260505175504 82 191 2.0 9.0 0.00 0.00 0.00 28 1006.5
20260505175003 82 190 1.0 9.0 0.00 0.00 0.00 26 1006.5
20260505174602 82 190 0.0 10.0 0.00 0.00 0.00 28 1006.7
20260505174503 82 191 1.0 10.0 0.00 0.00 0.00 29 1006.4
20260505174003 82 191 1.0 10.0 0.00 0.00 0.00 29 1006.4
20260505173504 81 191 1.0 11.0 0.00 0.00 0.00 32 1006.4
20260505173115 81 190 0.0 12.0 0.00 0.00 0.00 34 1006.7
20260505172503 81 190 2.0 11.0 0.00 0.00 0.00 32 1006.5
20260505171628 81 190 1.0 11.0 0.00 0.00 0.00 32 1006.8
20260505171504 81 191 1.0 7.0 0.00 0.00 0.00 32 1006.6
20260505171003 82 191 0.0 7.0 0.00 0.00 0.00 31 1006.5
20260505170503 82 191 1.0 6.0 0.00 0.00 0.00 30 1006.5
20260505170004 82 191 1.0 6.0 0.00 0.00 0.00 30 1006.8
20260505165003 80 191 1.0 7.0 0.00 0.00 0.00 32 1007.0
20260505164607 79 190 0.0 8.0 0.00 0.00 0.00 37 1007.3
20260505164504 79 191 1.0 8.0 0.00 0.00 0.00 34 1007.1
20260505164003 79 191 1.0 8.0 0.00 0.00 0.00 35 1007.3
20260505163503 79 191 1.0 5.0 0.00 0.00 0.00 35 1007.4
20260505163004 79 191 1.0 5.0 0.00 0.00 0.00 34 1007.5
20260505162503 78 191 1.0 7.0 0.00 0.00 0.00 36 1007.6
20260505161503 77 190 0.0 11.0 0.00 0.00 0.00 36 1008.1
20260505153003 74 190 1.0 6.0 0.00 0.00 0.00 40 1008.8
20260505152504 75 190 0.0 6.0 0.00 0.00 0.00 39 1008.7
20260505152003 75 191 0.0 4.0 0.00 0.00 0.00 43 1008.7
20260505151504 74 190 0.0 4.0 0.00 0.00 0.00 39 1009.0
20260505151004 75 191 0.0 2.0 0.00 0.00 0.00 40 1008.7
20260505140503 68 191 0.0 4.0 0.00 0.00 0.00 49 1009.1
20260505130132 64 190 0.0 4.0 0.00 0.00 0.00 54 1009.7
20260505124540 63 190 0.0 4.0 0.00 0.00 0.00 57 1009.6
20260505123025 62 190 0.0 0.0 0.00 0.00 0.00 61 1009.6
20260505121531 59 190 0.0 3.0 0.00 0.00 0.00 64 1009.7
20260505120015 58 190 0.0 0.0 0.00 0.00 0.00 68 1009.9
20260505114514 57 190 0.0 0.0 0.00 0.00 0.00 68 1010.0
20260505113011 57 190 0.0 1.0 0.00 0.00 0.00 69 1009.9
20260505111505 56 190 0.0 0.0 0.00 0.00 0.00 71 1009.7
20260505101600 53 190 0.0 0.0 0.00 0.00 0.00 70 1009.1
20260505100138 52 190 0.0 0.0 0.00 0.00 0.00 74 1008.9
20260505094557 49 190 0.0 0.0 0.00 0.00 0.00 75 1008.9
20260505093056 47 190 0.0 0.0 0.00 0.00 0.00 78 1009.0
20260505091616 47 190 0.0 0.0 0.00 0.00 0.00 76 1009.2
20260505090100 47 190 0.0 0.0 0.00 0.00 0.00 76 1009.1
20260505084550 48 190 0.0 0.0 0.00 0.00 0.00 73 1009.2
20260505083052 49 190 0.0 0.0 0.00 0.00 0.00 72 1009.3
20260505081549 50 190 0.0 0.0 0.00 0.00 0.00 71 1009.3
20260505080052 51 190 0.0 0.0 0.00 0.00 0.00 69 1009.2
20260505074546 52 190 0.0 1.0 0.00 0.00 0.00 67 1009.4
20260505073055 51 190 0.0 0.0 0.00 0.00 0.00 70 1009.4
20260505071546 49 190 0.0 0.0 0.00 0.00 0.00 73 1009.4
20260505070040 49 190 0.0 0.0 0.00 0.00 0.00 71 1009.5
20260505064537 50 190 0.0 0.0 0.00 0.00 0.00 69 1009.5
20260505063044 51 190 0.0 0.0 0.00 0.00 0.00 67 1009.7
20260505061534 52 190 0.0 0.0 0.00 0.00 0.00 65 1009.8
20260505060029 53 190 0.0 0.0 0.00 0.00 0.00 64 1009.8
20260505054536 53 190 0.0 0.0 0.00 0.00 0.00 65 1010.0
20260505053026 53 190 0.0 0.0 0.00 0.00 0.00 64 1010.1
20260505051535 54 190 0.0 0.0 0.00 0.00 0.00 63 1010.2
20260505041526 55 190 0.0 0.0 0.00 0.00 0.00 61 1010.3
20260505040014 55 190 0.0 1.0 0.00 0.00 0.00 60 1010.3
20260505034513 55 190 0.0 4.0 0.00 0.00 0.00 59 1010.1
20260505033012 55 190 0.0 2.0 0.00 0.00 0.00 58 1010.1
20260505031524 56 190 0.0 1.0 0.00 0.00 0.00 57 1010.0
20260505031003 56 0 0.0 0.0 0.00 0.00 0.00 56 1009.6
20260505030503 56 191 0.0 5.0 0.00 0.00 0.00 55 1009.3
20260505030012 56 190 0.0 5.0 0.00 0.00 0.00 55 1010.0
20260505025004 57 191 0.0 2.0 0.00 0.00 0.00 54 1009.4
20260505024512 57 190 0.0 0.0 0.00 0.00 0.00 53 1010.0
20260505024504 57 191 0.0 4.0 0.00 0.00 0.00 53 1009.5
20260505024004 57 191 0.0 4.0 0.00 0.00 0.00 52 1009.4
20260505023503 57 191 0.0 3.0 0.00 0.00 0.00 52 1009.5
20260505023015 57 190 0.0 0.0 0.00 0.00 0.00 52 1010.0
20260505023004 58 0 0.0 0.0 0.00 0.00 0.00 52 1009.4
20260505022004 58 191 0.0 5.0 0.00 0.00 0.00 50 1009.5
20260505021512 58 190 0.0 7.0 0.00 0.00 0.00 50 1010.0
20260505021503 58 191 0.0 7.0 0.00 0.00 0.00 50 1009.4